Back to catalog

STARLINK-35998

AliveCommunicationsVLEO
NORAD 68055·PAYLOAD·🇺🇸 United States

Launched Mar 2, 2026 from Vandenberg Space Force Base

Loading…

Next Passes (next 24 hours)

TLE

FreshSource: CelesTrak SupGP

Epoch: Sep 15, 2026, 04:21 UTC

1 68055C 26041R   26258.18173611 -.00051257  00000+0 -15144-2 0  2584
2 68055  53.1583 246.4879 0001404  88.5901 346.3896 15.34416162    14

Track STARLINK-35998 in real time with AllMySat

Download on the App Store